EN

Hourly Weather Kaprun

Today, 6 March, Saturday

Time Temperature Precipitation Wind Pressure Humidity
00:00 -12°C° 0.1 mm 2 mps 596 mmHg 95%
01:00 -13°C° 0 mm 2 mps 596 mmHg 95%
02:00 -12°C° 0 mm 1 mps 596 mmHg 94%
03:00 -12°C° 0 mm 1 mps 596 mmHg 94%
04:00 -13°C° 0 mm 1 mps 596 mmHg 93%
05:00 -13°C° 0 mm 1 mps 596 mmHg 88%
06:00 -13°C° 0 mm 1 mps 596 mmHg 83%
07:00 -16°C° 0 mm 2 mps 596 mmHg 78%
08:00 -11°C° 0 mm 1 mps 597 mmHg 71%
09:00 -9°C° 0 mm 1 mps 598 mmHg 65%
10:00 -6°C° 0 mm 0 mps 599 mmHg 58%
11:00 -4°C° 0 mm 1 mps 599 mmHg 60%
12:00 -4°C° 0 mm 1 mps 599 mmHg 63%
13:00 -3°C° 0 mm 1 mps 600 mmHg 65%
14:00 -3°C° 0 mm 1 mps 599 mmHg 68%
15:00 -3°C° 0 mm 1 mps 599 mmHg 70%
16:00 -3°C° 0 mm 1 mps 599 mmHg 73%
17:00 -6°C° 0 mm 1 mps 598 mmHg 76%
18:00 -7°C° 0 mm 1 mps 597 mmHg 79%
19:00 -9°C° 0 mm 1 mps 597 mmHg 82%
20:00 -10°C° 0 mm 1 mps 597 mmHg 77%
21:00 -10°C° 0 mm 1 mps 597 mmHg 73%
22:00 -10°C° 0 mm 1 mps 597 mmHg 68%
23:00 -10°C° 0 mm 1 mps 596 mmHg 66%

Tomorrow, 7 March, Sunday

Time Temperature Precipitation Wind Pressure Humidity
00:00 -10°C° 0 mm 1 mps 596 mmHg 64%
01:00 -11°C° 0 mm 1 mps 596 mmHg 61%
02:00 -11°C° 0 mm 1 mps 596 mmHg 58%
03:00 -13°C° 0 mm 2 mps 595 mmHg 55%
04:00 -12°C° 0 mm 2 mps 595 mmHg 52%
05:00 -12°C° 0 mm 2 mps 595 mmHg 52%
06:00 -12°C° 0 mm 2 mps 595 mmHg 52%
07:00 -12°C° 0 mm 2 mps 595 mmHg 51%
08:00 -8°C° 0 mm 1 mps 596 mmHg 56%
09:00 -4°C° 0 mm 1 mps 597 mmHg 61%
10:00 -1°C° 0 mm 1 mps 597 mmHg 66%
11:00 -1°C° 0 mm 1 mps 597 mmHg 69%
12:00 -1°C° 0 mm 1 mps 597 mmHg 72%
13:00 0°C° 0 mm 1 mps 597 mmHg 75%
14:00 0°C° 0 mm 1 mps 596 mmHg 77%
15:00 0°C° 0 mm 1 mps 596 mmHg 78%
16:00 -1°C° 0 mm 1 mps 595 mmHg 80%
17:00 -2°C° 0 mm 1 mps 594 mmHg 83%
18:00 -4°C° 0 mm 1 mps 594 mmHg 86%
19:00 -7°C° 0 mm 1 mps 593 mmHg 89%
20:00 -7°C° 0.1 mm 1 mps 593 mmHg 88%
21:00 -7°C° 0.1 mm 1 mps 593 mmHg 87%
22:00 -8°C° 0.1 mm 1 mps 593 mmHg 86%
23:00 -8°C° 0.1 mm 1 mps 593 mmHg 87%

Day after tomorrow, 8 March, Monday

Time Temperature Precipitation Wind Pressure Humidity
00:00 -8°C° 0.1 mm 1 mps 593 mmHg 88%
01:00 -8°C° 0.1 mm 1 mps 593 mmHg 89%
02:00 -8°C° 0.2 mm 1 mps 592 mmHg 91%
03:00 -8°C° 0.2 mm 1 mps 592 mmHg 93%
04:00 -8°C° 0.2 mm 1 mps 592 mmHg 94%
05:00 -8°C° 0.1 mm 1 mps 592 mmHg 95%
06:00 -7°C° 0.1 mm 1 mps 592 mmHg 95%
07:00 -7°C° 0.1 mm 1 mps 593 mmHg 96%
08:00 -6°C° 0.1 mm 1 mps 593 mmHg 93%
09:00 -4°C° 0.1 mm 1 mps 593 mmHg 91%
10:00 -3°C° 0.1 mm 1 mps 594 mmHg 89%
11:00 -3°C° 0.1 mm 1 mps 594 mmHg 88%
12:00 -3°C° 0.1 mm 1 mps 594 mmHg 87%
13:00 -2°C° 0.1 mm 1 mps 594 mmHg 85%
14:00 -2°C° 0.1 mm 1 mps 594 mmHg 85%
15:00 -3°C° 0.1 mm 1 mps 593 mmHg 85%
16:00 -3°C° 0.1 mm 1 mps 593 mmHg 85%
17:00 -4°C° 0 mm 1 mps 593 mmHg 88%
18:00 -6°C° 0 mm 1 mps 592 mmHg 91%
19:00 -7°C° 0 mm 1 mps 592 mmHg 94%
20:00 -8°C° 0 mm 1 mps 592 mmHg 92%
21:00 -8°C° 0 mm 1 mps 592 mmHg 91%
22:00 -9°C° 0 mm 1 mps 592 mmHg 89%
23:00 -9°C° 0 mm 1 mps 592 mmHg 86%

9 March, Tuesday

Time Temperature Precipitation Wind Pressure Humidity
00:00 -9°C° 0 mm 1 mps 591 mmHg 82%
01:00 -9°C° 0 mm 1 mps 591 mmHg 79%
02:00 -9°C° 0 mm 1 mps 591 mmHg 79%
03:00 -9°C° 0 mm 1 mps 591 mmHg 78%
04:00 -9°C° 0 mm 1 mps 591 mmHg 78%
05:00 -9°C° 0 mm 1 mps 591 mmHg 78%
06:00 -9°C° 0 mm 1 mps 591 mmHg 78%
07:00 -9°C° 0 mm 1 mps 591 mmHg 77%
08:00 -8°C° 0 mm 1 mps 592 mmHg 77%
09:00 -6°C° 0 mm 1 mps 592 mmHg 78%
10:00 -4°C° 0 mm 1 mps 593 mmHg 78%
11:00 -4°C° 0.1 mm 1 mps 593 mmHg 79%
12:00 -3°C° 0.1 mm 1 mps 593 mmHg 81%
13:00 -3°C° 0.1 mm 1 mps 594 mmHg 83%
14:00 -5°C° 0.2 mm 2 mps 593 mmHg 84%
15:00 -5°C° 0.2 mm 2 mps 593 mmHg 86%
16:00 -6°C° 0.2 mm 2 mps 593 mmHg 88%
17:00 -7°C° 0.2 mm 2 mps 593 mmHg 90%
18:00 -8°C° 0.2 mm 2 mps 593 mmHg 93%
19:00 -8°C° 0.2 mm 1 mps 593 mmHg 95%
20:00 -8°C° 0.1 mm 1 mps 593 mmHg 95%
21:00 -9°C° 0.1 mm 1 mps 593 mmHg 94%
22:00 -9°C° 0.1 mm 1 mps 593 mmHg 94%
23:00 -9°C° 0 mm 1 mps 593 mmHg 92%

10 March, Wednesday

Time Temperature Precipitation Wind Pressure Humidity
00:00 -10°C° 0 mm 1 mps 593 mmHg 91%
01:00 -10°C° 0 mm 1 mps 593 mmHg 90%
02:00 -10°C° 0 mm 1 mps 593 mmHg 89%
03:00 -13°C° 0 mm 2 mps 592 mmHg 89%
04:00 -13°C° 0 mm 2 mps 592 mmHg 88%
05:00 -10°C° 0 mm 1 mps 592 mmHg 85%
06:00 -10°C° 0 mm 1 mps 593 mmHg 82%
07:00 -10°C° 0 mm 1 mps 593 mmHg 80%
08:00 -8°C° 0 mm 1 mps 594 mmHg 76%
09:00 -6°C° 0 mm 1 mps 595 mmHg 73%
10:00 -3°C° 0 mm 1 mps 596 mmHg 70%
11:00 -2°C° 0 mm 1 mps 596 mmHg 69%
12:00 -1°C° 0 mm 1 mps 596 mmHg 67%
13:00 -2°C° 0 mm 0 mps 596 mmHg 66%
14:00 -2°C° 0 mm 0 mps 596 mmHg 67%
15:00 -1°C° 0 mm 1 mps 596 mmHg 69%
16:00 -1°C° 0 mm 1 mps 595 mmHg 70%
17:00 -2°C° 0 mm 1 mps 595 mmHg 73%
18:00 -4°C° 0 mm 1 mps 594 mmHg 75%
19:00 -6°C° 0 mm 1 mps 594 mmHg 78%
20:00 -6°C° 0 mm 1 mps 594 mmHg 75%
21:00 -6°C° 0 mm 1 mps 594 mmHg 73%
22:00 -6°C° 0 mm 1 mps 595 mmHg 71%
23:00 -6°C° 0 mm 1 mps 594 mmHg 68%

11 March, Thursday

Time Temperature Precipitation Wind Pressure Humidity
00:00 -7°C° 0 mm 2 mps 594 mmHg 65%
01:00 -7°C° 0 mm 2 mps 594 mmHg 62%
02:00 -6°C° 0 mm 2 mps 594 mmHg 62%
03:00 -6°C° 0 mm 2 mps 594 mmHg 61%
04:00 -6°C° 0 mm 2 mps 594 mmHg 60%
05:00 -5°C° 0 mm 2 mps 594 mmHg 60%
06:00 -3°C° 0 mm 1 mps 594 mmHg 61%
07:00 -2°C° 0 mm 1 mps 594 mmHg 61%
08:00 -1°C° 0 mm 1 mps 594 mmHg 65%
09:00 -2°C° 0 mm 2 mps 595 mmHg 70%
10:00 +1°C° 0 mm 2 mps 595 mmHg 74%
11:00 +1°C° 0 mm 2 mps 595 mmHg 75%
12:00 +1°C° 0 mm 2 mps 595 mmHg 76%
13:00 +2°C° 0 mm 2 mps 595 mmHg 77%
14:00 +1°C° 0 mm 2 mps 594 mmHg 79%
15:00 +1°C° 0 mm 2 mps 594 mmHg 80%
16:00 +1°C° 0 mm 2 mps 593 mmHg 82%
17:00 -1°C° 0 mm 2 mps 593 mmHg 82%
18:00 -3°C° 0 mm 2 mps 593 mmHg 83%
19:00 -4°C° 0 mm 2 mps 592 mmHg 83%
20:00 -4°C° 0 mm 2 mps 592 mmHg 82%
21:00 -4°C° 0 mm 2 mps 593 mmHg 81%
22:00 -4°C° 0 mm 2 mps 593 mmHg 80%
23:00 -3°C° 0.2 mm 1 mps 593 mmHg 81%
Show more

We Need Your Consent

Meteoprog and our Service Providers may store and access personal data such as cookies, device identifiers or other similar technologies on your device and process such data to personalise content and ads, as well as provide social media features and to analyse the traffic.

  • Store and/or access information on your device

    Cookies, device identifiers or other information can be stored or accessed on your device for the purposes indicated above.

  • Personalised ads and content, ad and content measurement, audience insights, and products development

    Ads and content can be personalised based on a profile. More data can be added to better personalise ads and content. Ad and content performance can be measured. Insights about the audience who saw the ads and content can be derived. Such data can be used to develop or improve user’s experience, systems and software.

By clicking ‘I Agree’ you will allow the use of indicated cookies, device identifiers, web beacons or other similar technologies. Your settings can be changed in the browser on your device.

For certain purposes, legitimate interests may be relied on, rather than consent. You can read more about this in our Privacy and Cookie Policy.